Location: Home
(42.5358°N, 72.7383°W)
Time: 10:31:37
(UTC-05:00)

BlueWalker 3 - Pass Details

Date: 04 December 2023
Orbit: 485 x 499 km, 53.2° (Epoch: 01 March)

Event Time Altitude Azimuth Distance (km) Brightness Sun altitude
Exits shadow 04:47:42 57° 89° (E) 587 2.4 -24.4°
Drops below altitude 10° 04:50:55 10° 119° (ESE) 1,684 5.5 -23.8°
Enters shadow 05:47:33 -68° 320° (NW) 12,379 8.9 -13.7°
